CLASSIFICA

INFERNO MUDRUN 11 km

DIVISIONI:
COMPETITIVA     NON COMPETITIVA     CLASSIFICA:   ASSOLUTA    M     F    
CATEGORIE:   TUTTE    |   18-24(F)   |   18-24(M)   |   25-29(F)   |   25-29(M)   |   30-34(F)   |   30-34(M)   |   35-39(F)   |   35-39(M)   |   40-44(F)   |   40-44(M)   |   45-49(F)   |   45-49(M)   |   50-99(F)   |   50-99(M)  
ALTRO: CLASSIFICA TEAM 
FILTRO:
  Atleta      Team        Pulisci       Atleti classificati COMPETITIVA: 310  

Cliccare sulle colonne per cambiare ordinamento Pagina:   | 1 | | 2 | | 3 | | 4 | | 5 | | 6 | | 7 |
Azioni Pos. M/F Cat. P.Cat. Pett Naz Atleta Squadra Tempo Distacco in tempo Distacco in metri Min/Km braccialetti regione
1125-29(M)1134COLOMBO STEFANOOCR HEROES00:52:18 00:00:00 0 00:04:45 3 -
2230-34(M)1381BIANCHI EUGENIOOCR TEAM ITALY LWT00:53:14 00:00:56 192 00:04:50 3 -
3330-34(M)2141DEPEDRI RAFFAELEFORCE RUN ARMY00:55:19 00:03:01 599 00:05:02 3 -
4418-24(M)1184MORI RICCARDOINFERNO TEAM00:56:00 00:03:42 726 00:05:06 3 -
5530-34(M)3136DALESSANDRO MARCOINFERNO TEAM00:58:15 00:05:57 1.123 00:05:18 3 -
6630-34(M)4170MACCHIAVELLO CLAUDIOINFERNO TEAM00:58:37 00:06:19 1.185 00:05:20 3 -
7725-29(M)2161KADIJA RIGERSINFERNOTEAM00:59:18 00:07:00 1.298 00:05:24 3 -
8825-29(M)3140DEL PIANO ANDREAINFERNO TEAM00:59:35 00:07:17 1.344 00:05:25 3 R
9935-39(M)1389BONAITA ALEXINDIVIDUALE00:59:44 00:07:26 1.368 00:05:26 3 -
101030-34(M)5114BERTOLASI MARCOWHITE DONKEYS01:00:11 00:07:53 1.440 00:05:28 3 -
111125-29(M)4171MAFFEI GIACOMOKNIGHT RACE01:01:00 00:08:42 1.568 00:05:33 3 -
121225-29(M)5364SPIRITO SIMONEOCR TEAM ITALY LWT01:01:49 00:09:31 1.693 00:05:37 3 -
131340-44(M)1113BERTA PAOLOWHITE DONKEYS01:02:15 00:09:57 1.758 00:05:40 3 -
141430-34(M)6378MANTOVANI DANIELEINDIVIDUALE01:02:52 00:10:34 1.848 00:05:43 3 R
151530-34(M)7186MUSSO FULVIOF.C.T.CHIERI A.S.D01:02:59 00:10:41 1.865 00:05:44 3 -
161630-34(M)8130CHIAPPINI STEFANOMAXIMUS CROSS RUN01:04:52 00:12:34 2.131 00:05:54 3 -
171740-44(M)2497PELLEREI LUCATEAM WRI01:05:14 00:12:56 2.180 00:05:56 3 -
181825-29(M)6187NATALINI MARCO4FITNESS TEAM MONKEY01:05:58 00:13:40 2.278 00:06:00 3 -
191925-29(M)7425PINTARELLI LORISINDIVIDUALE01:06:49 00:14:31 2.389 00:06:05 3 -
202040-44(M)3362SIRGHI DORINANIS MUDDERS01:07:21 00:15:03 2.458 00:06:07 3 -
212135-39(M)2104AUTERI DAVIDE4FITNESS TEAM MONKEY01:07:48 00:15:30 2.514 00:06:10 3 -
222235-39(M)3155GORASSO MASSIMOINDIVIDUALE01:08:01 00:15:43 2.541 00:06:11 3 -
232325-29(M)8139DEAVI STEFANOVERONA FORCE RUN ARMY01:08:07 00:15:49 2.554 00:06:12 3 -
242425-29(M)9280CECIONI ANDREAINDIVIDUALE01:08:28 00:16:10 2.597 00:06:14 3 R
252535-39(M)4363SPERANDIO MATTEOFORCE RUN ARMY01:08:37 00:16:19 2.615 00:06:14 3 -
262635-39(M)5147FRATARCANGELI MASSIMOMAXIMUS CROSS RUN01:09:05 00:16:47 2.672 00:06:17 3 -
272725-29(M)10462VITTA ZELMAN FILIPPOINDIVIDUALE01:09:15 00:16:57 2.692 00:06:18 3 -
282825-29(M)11108BATTAGLIA DINOFARM RUN01:10:29 00:18:11 2.837 00:06:25 3 -
292945-49(M)1131CINI ROLANDOWELLFIT RUN MUDDERS01:10:38 00:18:20 2.855 00:06:25 3 -
303025-29(M)12116BICCHI ENRICOINDIVIDUALE01:10:49 00:18:31 2.876 00:06:26 3 R
313135-39(M)6487CIOCCOLINI ALESSIOROMAOCR01:11:09 00:18:51 2.914 00:06:28 3 -
323235-39(M)7281CERRATO ILARIOINDIVIDUALE01:11:20 00:19:02 2.935 00:06:29 3 -
333330-34(M)9124CARUSO DARIOOCR TEAM ITALY LWT01:11:32 00:19:14 2.957 00:06:30 3 -
343425-29(M)13391MORGANTE GIUSEPPEFARMRUN01:12:44 00:20:26 3.090 00:06:37 3 -
353540-44(M)4150GASPARINI MAUROANIMALS OCR TEAM01:12:53 00:20:35 3.106 00:06:38 3 -
363640-44(M)5454TERZANI CRISTIANOMASTICABRODO ATEITLETI01:12:55 00:20:37 3.110 00:06:38 3 R
373730-34(M)10252ANGUSTI RUGGEROINDIVIDUALE01:14:27 00:22:09 3.272 00:06:46 3 -
383840-44(M)6464ZONTA ANDREAINDIVIDUALE01:15:31 00:23:13 3.381 00:06:52 3 -
393935-39(M)8195PITTI JOHNNIINDIVIDUALE01:15:32 00:23:14 3.383 00:06:52 3 -
404035-39(M)9121BONFANTI ANDREAINDIVIDUALE01:15:36 00:23:18 3.390 00:06:52 3 -
414125-29(M)14126CASIRAGHI LUCAWHITE DONKEYS01:15:58 00:23:40 3.426 00:06:54 3 -
424230-34(M)11180MEDEA ALBERTOINDIVIDUALE01:16:34 00:24:16 3.486 00:06:58 3 -
434340-44(M)7262BONDI DIEGOKNIGHT RACE01:16:38 00:24:20 3.492 00:06:58 3 -
444418-24(M)2435PREZIOSO PAOLOTIMEOUTPRATO01:17:00 00:24:42 3.528 00:07:00 3 -
454530-34(M)12110BELLODI ANDREAWHITE DONKEYS01:17:21 00:25:03 3.562 00:07:02 3 -
464630-34(M)13157GUERNIERI VALERIOWHITE DONKEYS01:17:28 00:25:10 3.573 00:07:03 3 -
474735-39(M)10373TIBERI ANTONIOINDIVIDUALE01:17:48 00:25:30 3.605 00:07:04 3 -
484825-29(M)15145FILIBERTO MARCOINDIVIDUALE01:17:52 00:25:34 3.611 00:07:05 3 -
494940-44(M)8330MIGLIORE FRANCESCOASD CSF14 MODICA01:17:52 00:25:34 3.611 00:07:05 3 -
505040-44(M)9458VALLERANI FRANCESCOASIA WARRIORS TEAM01:17:53 00:25:35 3.613 00:07:05 3 -
515145-49(M)2197QUATTROCCHI UMBERTONO RULES01:18:17 00:25:59 3.651 00:07:07 3 -
525235-39(M)11120BONESI SAMUELWHITE DONKEYS01:18:25 00:26:07 3.663 00:07:08 3 -
535330-34(M)14218ZAPPA STEFANOWHITE DONKEYS01:19:05 00:26:47 3.725 00:07:11 3 -
545425-29(M)16128CAVICCHIOLO LUCA GIUSEPPEANIMALS OCR TEAM01:19:10 00:26:52 3.733 00:07:12 3 -
555518-24(M)3411DI ROSA MICHELENINJA CAVE01:19:15 00:26:57 3.740 00:07:12 3 -
56125-29(F)1158HARTAN DIANA MARIAINFERNO TEAM01:19:39 00:27:21 3.777 00:07:15 3 -
575640-44(M)10123CARLINI SIMONEFARM RUN01:20:37 00:28:19 3.863 00:07:20 3 -
585718-24(M)4461VIGNALI NICOLÒINDIVIDUALE01:21:13 00:28:55 3.916 00:07:23 3 R
595830-34(M)15460VENCO FRANCESCOTEAM SPARTAN ARENA01:21:40 00:29:22 3.955 00:07:26 3 -
605925-29(M)17426PIOMBONI NICOLÒINDIVIDUALE01:21:45 00:29:27 3.962 00:07:26 3 -
616025-29(M)18482BIDASIO MATTIAINDIVIDUALE01:21:54 00:29:36 3.975 00:07:27 3 -
626135-39(M)12481BELLINI GIULIOANIS MUDDERS01:22:08 00:29:50 3.995 00:07:28 3 -
636240-44(M)11392DE SANTIS STEFANOINSOLUBILI01:22:41 00:30:23 4.042 00:07:31 3 MC
646345-49(M)3149GARBIN FABIOF.C.T.CHIERI A.S.D01:23:14 00:30:56 4.088 00:07:34 3 -
656440-44(M)12177MASALA ENRICOANIMALS OCR TEAM01:23:15 00:30:57 4.089 00:07:34 3 -
666545-49(M)4332MONTANARI FRANCESCOINDIVIDUALE01:23:32 00:31:14 4.112 00:07:36 3 R
676625-29(M)19459VALLI ANDREAINDIVIDUALE01:23:36 00:31:18 4.118 00:07:36 3 R
686718-24(M)5428POCATERRA SIMONETEAM SPARTAN ARENA01:23:57 00:31:39 4.147 00:07:38 3 -
696845-49(M)5112BELLUCCI CORRADOINDIVIDUALE01:25:25 00:33:07 4.264 00:07:46 3 -
706918-24(M)6168LUSINI LORENZONINJA CAVE01:25:47 00:33:29 4.293 00:07:48 3 R
717025-29(M)20365TESTA MATTIAWAS01:26:01 00:33:43 4.311 00:07:49 3 -
727130-34(M)16201RENZETTI BERNARDOINDIVIDUALE01:26:30 00:34:12 4.349 00:07:52 3 R
737245-49(M)6193PILOTTA ALESSANDROCELTIC TEAM01:26:41 00:34:23 4.363 00:07:53 3 -
747335-39(M)13253APPOGGI SIMONEINDIVIDUALE01:26:54 00:34:36 4.379 00:07:54 3 -
757430-34(M)17217ZANONI MATTEOWHITE DONKEYS01:27:01 00:34:43 4.388 00:07:55 3 -
767540-44(M)13287D'ANDREA GIOVANNIATHLOS TRAINING CENTER01:27:01 00:34:43 4.388 00:07:55 3 -
777645-49(M)7138DE ROSA DOMENICOTEAM SPARTAN ARENA01:27:26 00:35:08 4.420 00:07:57 3 -
787735-39(M)14164LONGO OSCARINDIVIDUALE01:27:43 00:35:25 4.441 00:07:59 3 -
797845-49(M)8129CECCOTTI DANIELEINDIVIDUALE01:27:47 00:35:29 4.446 00:07:59 3 R
807918-24(M)7420PAROLINI STEFANOINDIVIDUALE01:27:50 00:35:32 4.450 00:07:59 3 -
818040-44(M)14433PORCU LAUROKOR KALARIS OBSTACLE RACERS01:29:22 00:37:04 4.562 00:08:08 3 -
828125-29(M)21438PULISCI SAMUELEINDIVIDUALE01:29:22 00:37:04 4.562 00:08:08 3 R
838230-34(M)18178MASELLI LUCAINDIVIDUALE01:29:27 00:37:09 4.568 00:08:08 3 -
848335-39(M)15152GHINZELLI DARIOWHITEDONKEYS OCR TEAM01:29:37 00:37:19 4.580 00:08:09 3 -
858425-29(M)22298FARINELLA MARCOANIMALS OCR TEAM01:29:42 00:37:24 4.586 00:08:09 3 -
868540-44(M)15179MASSIMO GLAUCOINDIVIDUALE01:29:43 00:37:25 4.587 00:08:09 3 -
878645-49(M)9175MARINI ALESSANDROANIMALS OCR TEAM01:29:44 00:37:26 4.588 00:08:10 3 -
888730-34(M)19105BARALDI DAVIDEWHITE DONKEYS01:29:51 00:37:33 4.597 00:08:10 3 -
898818-24(M)8368TRALDI DAVIDEINDIVIDUALE01:30:10 00:37:52 4.619 00:08:12 3 -
908925-29(M)23484BRACCAIOLI LORENZOINDIVIDUALE01:30:22 00:38:04 4.633 00:08:13 3 -
919030-34(M)20491GARDINI ANDREATEAMFITNESSFORLI01:30:41 00:38:23 4.655 00:08:15 3 -
929125-29(M)24196PUCCINI LORENZONINJA CAVE01:31:04 00:38:46 4.682 00:08:17 3 -
939230-34(M)21279CAVALLO ROSSANOASD CSF14 MODICA01:32:00 00:39:42 4.746 00:08:22 3 -
949345-49(M)10251ANFOSSI DAVIDEINDIVIDUALE01:32:24 00:40:06 4.773 00:08:24 3 -
959430-34(M)22413HALOUACHI M'HAMEDINDIVIDUALE01:32:36 00:40:18 4.787 00:08:25 3 -
969530-34(M)23216ZANETTI PAOLOINDIVIDUALE01:32:42 00:40:24 4.793 00:08:26 3 -
979635-39(M)16137DE PRA JACOPOANIMALS OCR TEAM01:32:54 00:40:36 4.807 00:08:27 3 -
989735-39(M)17422PEPPE ROSARIOINDIVIDUALE01:33:12 00:40:54 4.827 00:08:28 3 R
999825-29(M)25440RANDIS RICCARDONINJA CAVE01:33:13 00:40:55 4.828 00:08:29 3 -
1009930-34(M)24292DE MATTEO MARCOINDIVIDUALE01:33:46 00:41:28 4.864 00:08:32 3 -
10110035-39(M)18431PORCELLI ATTILIOINDIVIDUALE01:34:10 00:41:52 4.890 00:08:34 3 -
10210118-24(M)9146FORMICI NICOLAWHITEDONKEYS OCR TEAM01:34:35 00:42:17 4.917 00:08:36 3 -
10310240-44(M)16210SGHERRI FREDIINDIVIDUALE01:35:02 00:42:44 4.946 00:08:38 3 R
10410330-34(M)25412DI VITO DANIELEMAXIMUS CROSS RUN01:35:08 00:42:50 4.952 00:08:39 3 -
105218-24(F)1160KADIJA RIGERTAINFERNO TEAM01:35:27 00:43:09 4.972 00:08:41 3 R
10610445-49(M)11151GEMELLI ALESSANDROINDIVIDUALE01:35:33 00:43:15 4.979 00:08:41 3 -
10710525-29(M)26153GINI NICOLANINJA CAVE01:36:29 00:44:11 5.037 00:08:46 3 -
10810650-99(M)1163LIGORIO LUIGIINDIVIDUALE01:36:34 00:44:16 5.042 00:08:47 3 -
109330-34(F)1405BRACALINI SERENAINDIVIDUALE01:36:46 00:44:28 5.054 00:08:48 3 R
11010745-49(M)12263BOSSI FABIOINDIVIDUALE01:36:49 00:44:31 5.057 00:08:48 3 -
11110840-44(M)17275CASINI DARIONINJA CAVE01:37:04 00:44:46 5.073 00:08:50 3 R
11210918-24(M)10496PACIFICO MICHELEWAS01:38:06 00:45:48 5.135 00:08:55 3 -
11311045-49(M)13271CAMMAROTA FABIOTEAM ZEROLIMITS01:41:30 00:49:12 5.332 00:09:14 3 -
11411135-39(M)19166LUCA DAVIDEDAS TEAM01:42:19 00:50:01 5.377 00:09:18 3 -
11511235-39(M)20486CIARDELLI DARIOTEAM SPARTAN ARENA01:42:58 00:50:40 5.412 00:09:22 3 -
11611340-44(M)18334MORETTI DANIELEINDIVIDUALE01:43:32 00:51:14 5.443 00:09:25 3 -
11711430-34(M)26311GIOMMETTI FEDERICOINDIVIDUALE01:43:33 00:51:15 5.444 00:09:25 3 R
11811535-39(M)21361SAVAZZI FEDERICOWHITEDONKEYS OCR TEAM01:44:01 00:51:43 5.469 00:09:27 3 -
11911640-44(M)19321LIORI IVANKOR KALARIS OBSTACLE RACERS01:44:10 00:51:52 5.477 00:09:28 3 -
12011725-29(M)27309GHELARDI MIRKOINDIVIDUALE01:44:49 00:52:31 5.511 00:09:32 3 R
12111830-34(M)27203ROCCHICCIOLI FEDERICOINDIVIDUALE01:44:50 00:52:32 5.512 00:09:32 3 R
12211950-99(M)2296FABIANI MARCOROMAOCR01:44:59 00:52:41 5.520 00:09:33 3 -
12312030-34(M)28119BONESI DAVIDEWHITE DONKEYS01:45:13 00:52:55 5.532 00:09:34 3 -
12412118-24(M)11446SANNA DARIOINDIVIDUALE01:46:57 00:54:39 5.620 00:09:43 3 -
12512230-34(M)29300FEDE FRANCESCOASD CSF14 MODICA01:46:57 00:54:39 5.620 00:09:43 3 -
12612340-44(M)20423PERFETTI GINONINJA CAVE01:48:14 00:55:56 5.684 00:09:50 3 -
12712425-29(M)28436PROFETTO NICOLO'ASD CSF14 MODICA01:49:32 00:57:14 5.747 00:09:58 3 -
12812530-34(M)30205RONCHI LEANDROINDIVIDUALE01:50:12 00:57:54 5.779 00:10:01 3 R
12912630-34(M)31172MANNO MARCONINJA CAVE01:52:07 00:59:49 5.868 00:10:12 3 -
13012735-39(M)22410DI PIETRO SIMONEROMAOCR01:53:49 01:01:31 5.945 00:10:21 3 -
131440-44(F)1144FERRARI SABRINAINDIVIDUALE01:54:19 01:02:01 5.967 00:10:24 3 R
13212845-49(M)14167LUPERINI EMILIANOINDIVIDUALE01:55:03 01:02:45 5.999 00:10:28 3 R
13312930-34(M)32427PISANU STEFANO GIUSEPPEIS MOLENTIS OCR01:55:47 01:03:29 6.031 00:10:32 3 -
13413030-34(M)33409CONFORTI DANIELEINDIVIDUALE01:55:54 01:03:36 6.036 00:10:32 3 -
13513135-39(M)23254ATZORI MORENOIS MOLENTIS OCR01:56:15 01:03:57 6.051 00:10:34 3 -
13613225-29(M)29416MELIS GIACOMOIS MOLENTIS OCR01:56:43 01:04:25 6.070 00:10:37 3 -
13713318-24(M)12191PELIZZA MATTEOINDIVIDUALE01:59:02 01:06:44 6.166 00:10:49 3 -
13813425-29(M)30185MOSCATELLI MICHELEFARM RUN01:59:24 01:07:06 6.181 00:10:51 3 -
13913540-44(M)21492GIANELLI GABRIELEINDIVIDUALE01:59:35 01:07:17 6.189 00:10:52 3 -
14013635-39(M)24479ARALDI ALESSANDROINDIVIDUALE02:02:17 01:09:59 6.295 00:11:07 3 -
14113725-29(M)31211SILVESTRI MICHELENINJA CAVE02:07:53 01:15:35 6.501 00:11:38 3 R
142535-39(F)1109BATTIATI ADELEMAXIMUS CROSS RUN02:09:04 01:16:46 6.542 00:11:44 3 -
143630-34(F)2165LOVATO DANIELAWHITE DONKEYS02:13:03 01:20:45 6.676 00:12:06 3 -
14413830-34(M)34494LA TORRE BIAGIOWAS02:14:16 01:21:58 6.715 00:12:12 3 -
14513925-29(M)32333MONTISCI GRAZIANO4FITNESS TEAM MONKEY02:14:49 01:22:31 6.732 00:12:15 3 -
14614045-49(M)15390PARODI ANDREAINVICTUS TEAM02:16:10 01:23:52 6.775 00:12:23 3 -
14714140-44(M)22451SIDDI SAMUELEKOR KALARIS OBSTACLE RACERS02:16:38 01:24:20 6.789 00:12:25 3 -
14814235-39(M)25194PINNA ANDREAKOR KALARIS OBSTACLE RACERS02:18:27 01:26:09 6.844 00:12:35 3 -
149718-24(F)2219ZENGA CAROLINFERNO TEAM02:26:30 01:34:12 7.073 00:13:19 3 -
150830-34(F)3475GALLI LUDOVICARED LEMURS02:29:28 01:37:10 7.150 00:13:35 3 R
15114345-49(M)16437PUCA MASSIMO4FITNESS TEAM MONKEY02:44:00 01:51:42 7.492 00:14:55 3 -
15214440-44(M)23386CENTI FABRIZIOINDIVIDUALE02:46:02 01:53:44 7.535 00:15:06 3 -
15314530-34(M)35268BUSCEMA ENRICOASD CSF14 MODICA01:21:45 00:29:27 3.962 00:07:26 2 -
15414625-29(M)33118BONAMICI LUCATEAMFITNESSFORLI01:23:09 00:30:51 4.081 00:07:34 2 -
15514730-34(M)36369TURRINI ALENINDIVIDUALE01:28:00 00:35:42 4.462 00:08:00 2 -
15614840-44(M)24430POMO CLAUDIOINDIVIDUALE01:30:16 00:37:58 4.626 00:08:12 2 -
15714935-39(M)26382GALLO ALESSIOINDIVIDUALE01:31:17 00:38:59 4.697 00:08:18 2 NULL
15815030-34(M)37344RESTUCCIA NICOLÒINDIVIDUALE01:31:59 00:39:41 4.745 00:08:22 2 -
15915135-39(M)27290DE MARCHI ALESSANDROINDIVIDUALE01:31:59 00:39:41 4.745 00:08:22 2 -
16015245-49(M)17490FANTONI GIOVANNIINDIVIDUALE01:32:10 00:39:52 4.758 00:08:23 2 R
16115340-44(M)25135DADDOVERI MASSIMOPREDARUBIA OCR TEAM01:34:18 00:42:00 4.899 00:08:34 2 R
16215430-34(M)38162LAROSA MATTEOINDIVIDUALE01:37:12 00:44:54 5.081 00:08:50 2 -
16315540-44(M)26215TINI EMANUELEINDIVIDUALE01:38:04 00:45:46 5.133 00:08:55 2 -
16415635-39(M)28448SCHILLACI FABIOINDIVIDUALE01:38:25 00:46:07 5.154 00:08:57 2 -
16515735-39(M)29282CESARANO LUIGIINDIVIDUALE01:40:48 00:48:30 5.292 00:09:10 2 R
16615850-99(M)3174MARABINI ROBERTOINDIVIDUALE01:42:31 00:50:13 5.388 00:09:19 2 -
16715945-49(M)18212TAGLIABUE DAVIDEOCR TEAM ITALY LWT01:43:01 00:50:43 5.415 00:09:22 2 -
16816025-29(M)34447SANTORI ALESSIOINDIVIDUALE01:44:16 00:51:58 5.482 00:09:29 2 -
16916145-49(M)19303FONTANA MAURIZIOWHITEDONKEYS OCR TEAM01:49:02 00:56:44 5.723 00:09:55 2 -
17016235-39(M)30148GALLESI LUCAINDIVIDUALE01:49:32 00:57:14 5.747 00:09:58 2 -
17116345-49(M)20200RAVIZZA MARCOINDIVIDUALE01:51:45 00:59:27 5.851 00:10:10 2 -
17216425-29(M)35379GAMBIOLI PAOLOINDIVIDIUALE01:55:03 01:02:45 5.999 00:10:28 2 -
17316550-99(M)4345SATTANINO CARLOINDIVIDUALE01:56:58 01:04:40 6.081 00:10:38 2 -
174918-24(F)3383RAVANI RACHELEOCR TEAM ITALY LWT01:58:40 01:06:22 6.151 00:10:47 2 -
17516635-39(M)31463MAZZI DANIELEHEAVEN WARRIORS01:58:42 01:06:24 6.153 00:10:48 2 -
17616730-34(M)39182MOLGORA GABRIELEINDIVIDUALE01:59:29 01:07:11 6.185 00:10:52 2 -
17716840-44(M)27444ROTUNNO PAOLOINDIVIDUALE02:01:14 01:08:56 6.254 00:11:01 2 R
17816935-39(M)32489FALASCONI MICHELEKNIGHT RACE02:03:33 01:11:15 6.343 00:11:14 2 -
17917035-39(M)33465ZUNINO ALESSIOINDIVIDUALE02:08:46 01:16:28 6.532 00:11:42 2 -
1801040-44(F)2192PERRONE IDA ANNAWHITE DONKEYS02:11:26 01:19:08 6.622 00:11:57 2 -
18117145-49(M)21347SICCARDI ANDREAINVICTUS TEAM02:11:37 01:19:19 6.628 00:11:58 2 -
18217230-34(M)40307GENTILI FAUSTOATHLOS TRAINING CENTER02:16:09 01:23:51 6.774 00:12:23 2 -
18317345-49(M)22335MUSIU SAMUELKOR KALARIS OBSTACLE RACERS02:17:48 01:25:30 6.825 00:12:32 2 -
1841150-99(F)1183MONDINI ROSSELLAINDIVIDUALE02:18:52 01:26:34 6.857 00:12:38 2 -
18517445-49(M)23301FIORIO DAVIDEWHITEDONKEYS OCR TEAM02:20:53 01:28:35 6.916 00:12:49 2 -
1861225-29(F)2107BARTOLI SARANINJA CAVE02:28:54 01:36:36 7.136 00:13:32 2 R
18717540-44(M)28320LAUDENZI MAURIZIOINDIVIDUALE02:32:39 01:40:21 7.231 00:13:53 2 -
1881318-24(F)4154GODANI FRANCESCANINJA CAVE02:36:02 01:43:44 7.312 00:14:11 2 -
18917645-49(M)24371VIVALDI MASSIMOINDIVIDUALE02:36:45 01:44:27 7.329 00:14:15 2 VA
19017735-39(M)34407CARMANNINI LEONARDOINDIVIDUALE02:38:25 01:46:07 7.368 00:14:24 2 -
1911430-34(F)4106BARDELLINI PAOLAWORKOUTGYM02:45:57 01:53:39 7.533 00:15:05 2 -
1921518-24(F)5285CUOZZO STEFANIANINJA CAVE02:49:53 01:57:35 7.613 00:15:27 2 -
1931625-29(F)3189OSSOLA ELISATEAM SPARTAN ARENA03:21:35 02:29:17 8.146 00:18:20 2 -
19417835-39(M)35272CAMPINOTI CARLOTNXXX01:24:12 00:31:54 4.167 00:07:39 1 R
19517930-34(M)41132CIVA LORENZOWHITEDONKEYS OCR TEAM01:36:30 00:44:12 5.038 00:08:46 1 -
19618040-44(M)29208SCIRISCIOLI NICOLAKNIGHT RACE01:38:55 00:46:37 5.183 00:09:00 1 -
19718130-34(M)42339ORRÙ SIMONEF.C.T.CHIERI A.S.D01:40:59 00:48:41 5.303 00:09:11 1 -
19818225-29(M)36101AMADUCCI LUCATEAMFITNESSFORLI01:42:26 00:50:08 5.383 00:09:19 1 -
19918340-44(M)30393NAP FRANKINDIVIDUALE01:42:32 00:50:14 5.389 00:09:19 1 -
20018418-24(M)13340PARRINI SIMONEDONORATICO'S SPARTANS01:44:11 00:51:53 5.478 00:09:28 1 R
20118550-99(M)5176MARTINI PIETROINDIVIDUALE01:45:29 00:53:11 5.546 00:09:35 1 -
20218645-49(M)25304FRANDI MASSIMILIANOINDIVIDUALE01:46:50 00:54:32 5.614 00:09:43 1 R
20318735-39(M)36429POLI ENRICOINDIVIDUALE01:51:00 00:58:42 5.817 00:10:06 1 -
20418835-39(M)37102ANDREOTTI GIACOMOINDIVIDIUALE01:58:53 01:06:35 6.160 00:10:49 1 R
20518925-29(M)37374BECATTINI MATTEOINDIVIDUALE01:59:12 01:06:54 6.173 00:10:50 1 FI
20619045-49(M)26500SAMBUCHI FABIOINDIVIDUALE02:00:45 01:08:27 6.235 00:10:59 1 -
20719145-49(M)27277CATALANO EMANUELEINDIVIDUALE02:01:37 01:09:19 6.269 00:11:03 1 -
20819240-44(M)31498PETTINO MASSIMILIANOINDIVIDUALE02:03:35 01:11:17 6.344 00:11:14 1 -
20919335-39(M)38327ZAMPINI FABIOHEAVEN WARRIORS02:04:47 01:12:29 6.389 00:11:21 1 -
21019440-44(M)32424PIETROLUCCI STEFANOINDIVIDUALE02:08:17 01:15:59 6.515 00:11:40 1 -
21119545-49(M)28372LEONE ALESSIOINDIVIDUALE02:17:22 01:25:04 6.811 00:12:29 1 -
21219650-99(M)6467CASALEGNO MARCOF.C.T.CHIERI A.S.D02:20:19 01:28:01 6.899 00:12:45 1 -
2131718-24(F)6133COLABIANCHI ELENAMAXIMUS CROSS RUN02:28:42 01:36:24 7.131 00:13:31 1 -
2141830-34(F)5269BUSIA AGNESEANIMALS OCR TEAM02:31:45 01:39:27 7.208 00:13:48 1 -
21519718-24(M)14449SCIUTTO CARLODAS TEAM02:36:32 01:44:14 7.324 00:14:14 1 -
2161935-39(F)2299FAVINI BEATRICEINDIVIDUALE02:37:20 01:45:02 7.343 00:14:18 1 -
21719840-44(M)33273CAPRIOLI LUIGINOINDIVIDUALE02:40:03 01:47:45 7.405 00:14:33 1 -
21819925-29(M)38306GARDINI ALEXTEAMFITNESSFORLI02:44:44 01:52:26 7.507 00:14:59 1 -
21920035-39(M)39329MEDDA FRANCESCO4FITNESS TEAM MONKEY02:59:23 02:07:05 7.792 00:16:19 1 -
2202040-44(F)3143DOMINICI BARBARAFARM RUN03:15:55 02:23:37 8.063 00:17:49 1 -
2212130-34(F)6473D'AMBROSIO SILVIAANIS MUDDERS03:18:11 02:25:53 8.097 00:18:01 1 -
22220135-39(M)40315INFANTE SIMONEHEAVEN WARRIORS01:36:01 00:43:43 5.008 00:08:44 0 -
22320235-39(M)41450SELLERI STEFANOTEAMFITNESSFORLI01:36:50 00:44:32 5.058 00:08:48 0 -
22420335-39(M)42169LUSINI MARCOINDIVIDUALE01:37:12 00:44:54 5.081 00:08:50 0 R
22520445-49(M)29331MILANESI MAURIZIOINDIVIDUALE01:39:09 00:46:51 5.197 00:09:01 0 R
22620525-29(M)39316ISOLI MICHELEINDIVIDUALE01:39:36 00:47:18 5.223 00:09:03 0 -
22720630-34(M)43318LANZI DAVIDINDIVIDUALE01:41:46 00:49:28 5.346 00:09:15 0 -
22820735-39(M)43452STEVANIN PAOILOOCR HEROES01:42:32 00:50:14 5.389 00:09:19 0 R
22920845-49(M)30328MECIANI DAVIDINDIVIDUALE01:43:33 00:51:15 5.444 00:09:25 0 R
23020940-44(M)34257BECHERI FRANCESCOINDIVIDUALE01:43:44 00:51:26 5.454 00:09:26 0 -
23121025-29(M)40267BURBERI CRISTIANITCOMPANY01:44:11 00:51:53 5.478 00:09:28 0 R
23221145-49(M)31259BIANCHI NICOLAINDIVIDUALE01:45:29 00:53:11 5.546 00:09:35 0 -
23321230-34(M)44404BORELLINI DIMITRIINDIVIDUALE01:47:40 00:55:22 5.656 00:09:47 0 -
2342230-34(F)7442RODRÍGUEZ ROCIOINFERNOTEAM01:47:51 00:55:33 5.665 00:09:48 0 -
23521330-34(M)45485CARAMANICO ALESSANDROSNCZT01:49:40 00:57:22 5.754 00:09:58 0 R
23621435-39(M)44384MATALUSO EZIOINDIVIDUALE01:53:19 01:01:01 5.923 00:10:18 0 -
23721535-39(M)45387ZIROLI EMANUELEINDIVIDUALE01:53:35 01:01:17 5.934 00:10:20 0 -
2382340-44(F)4312GOTSCHMANN JULIAROMAOCR01:54:01 01:01:43 5.954 00:10:22 0 -
23921645-49(M)32261BONCOMPAGNI ALESSIOINDIVIDUALE01:55:54 01:03:36 6.036 00:10:32 0 R
2402435-39(F)3346SAVORANI PATRIZIAINDIVIDUALE01:56:38 01:04:20 6.067 00:10:36 0 -
24121740-44(M)35408CECCARELLI MARCOTNXXX01:56:49 01:04:31 6.075 00:10:37 0 R
24221825-29(M)41338ODINELLI MATTEOTEAMFITNESSFORLI01:56:59 01:04:41 6.082 00:10:38 0 -
24321935-39(M)46495LODDE LUCATRIATLETI IGNORANTI01:58:07 01:05:49 6.129 00:10:44 0 -
2442535-39(F)4322LITTERA VALENTINAOCR TEAM IMSA01:58:11 01:05:53 6.132 00:10:45 0 -
24522025-29(M)42198QUERCIOLI EMANUELEINDIVIDUALE01:59:28 01:07:10 6.184 00:10:52 0 R
24622130-34(M)46266BRUTTI MARCO VALERIOHEAVEN WARRIORS01:59:38 01:07:20 6.191 00:10:53 0 -
24722218-24(M)15188OPPOLITI ALBERTOINDIVIDUALE01:59:51 01:07:33 6.199 00:10:54 0 -
24822330-34(M)47323LORETI EMILIANOHEAVEN WARRIORS02:00:04 01:07:46 6.208 00:10:55 0 -
24922435-39(M)47488DALLAGIACOMA LUCAFORCE RUN ARMY02:01:15 01:08:57 6.255 00:11:01 0 -
25022535-39(M)48207ROSSI CHRISTIANINDIVIDUALE02:02:22 01:10:04 6.298 00:11:08 0 -
2512640-44(F)5291DE MARTINIS RAFFAELLAINDIVIDUALE02:02:42 01:10:24 6.311 00:11:09 0 -
25222650-99(M)7256BARBALISCIA GIANCARLOINDIVIDUALE02:03:52 01:11:34 6.355 00:11:16 0 -
25322740-44(M)36270CALLEGARI ENRICOTKT PARMA02:04:58 01:12:40 6.396 00:11:22 0 R
2542725-29(F)4476ISOLI DIANA VALENTINAFORCE RUN ARMY02:06:57 01:14:39 6.468 00:11:33 0 -
25522850-99(M)8432PORCINO GIORGIOHEAVEN WARRIORS02:08:01 01:15:43 6.506 00:11:38 0 -
25622945-49(M)33284CICIONE GUIDOINDIVIDUALE02:10:40 01:18:22 6.597 00:11:53 0 -
2572840-44(F)6348SOZZE ' CRISTINAINVICTUS TEAM-SPARTAN SGX02:11:02 01:18:44 6.609 00:11:55 0 -
25823025-29(M)43199RANIERI LUCATEAMFITNESSFORLI02:13:33 01:21:15 6.692 00:12:09 0 -
25923145-49(M)34415IOZZELLI VESTUTI DONATOINDIVIDUALE02:13:46 01:21:28 6.699 00:12:10 0 -
2602925-29(F)5295ET TABAA FATIMA EZ ZAHRAINVICTUS TEAM02:14:15 01:21:57 6.714 00:12:12 0 -
26123245-49(M)35375TAVERNA GIANLUCATREMENDI02:14:17 01:21:59 6.715 00:12:13 0 FI
26223330-34(M)48265BRUNI ANDREAINDIVIDUALE02:15:00 01:22:42 6.738 00:12:16 0 R
26323418-24(M)16250ATLETA NON REGISTRATOINDIVIDUALE02:15:03 01:22:45 6.740 00:12:17 0 -
26423525-29(M)44367TORRIERI RICCARDOWAS02:18:24 01:26:06 6.843 00:12:35 0 -
26523625-29(M)45421PATERNOSTRO PAOLOINDIVIDUALE02:18:56 01:26:38 6.859 00:12:38 0 -
26623740-44(M)37443RONCARI DAMIANOINDIVIDUALE02:19:28 01:27:10 6.875 00:12:41 0 R
26723825-29(M)46493GIORGIANNI ALEXANDROINDIVIDUALE02:20:04 01:27:46 6.892 00:12:44 0 -
26823945-49(M)36483BOTTOSSO ALESSANDROINDIVIDUALE02:20:24 01:28:06 6.902 00:12:46 0 -
26924035-39(M)49317LAI MAUROKOR KALARIS OBSTACLE RACERS02:21:40 01:29:22 6.939 00:12:53 0 -
27024135-39(M)50417NACINOVICH MATTIAINDIVIDUALE02:21:41 01:29:23 6.939 00:12:53 0 R
27124235-39(M)51418PAOLINI SIMONEINDIVIDUALE02:21:41 01:29:23 6.939 00:12:53 0 -
27224335-39(M)52388D'ALONZO NICOLANEVER DIE02:22:33 01:30:15 6.964 00:12:58 0 -
27324445-49(M)37209SEPE MASSIMILIANOMAXIMUS CROSS RUN02:23:36 01:31:18 6.993 00:13:03 0 -
27424550-99(M)9260BITI ROBERTODREAM TEAM02:24:43 01:32:25 7.024 00:13:09 0 -
27524640-44(M)38457VAIANI RONNYDREAM TEAM02:25:43 01:33:25 7.051 00:13:15 0 -
27624730-34(M)49349SOZZI GIANPIETROINDIVIDUALE02:26:03 01:33:45 7.060 00:13:17 0 -
2773045-49(F)1352TENTONI RUGIADAINDIVIDUALE02:26:16 01:33:58 7.066 00:13:18 0 -
27824840-44(M)39445SABIU IVANKOR KALARIS OBSTACLE RACERS02:29:30 01:37:12 7.151 00:13:36 0 -
2793135-39(F)5293DI BATTISTA LUCIAINDIVIDUALE02:31:13 01:38:55 7.195 00:13:45 0 -
28024925-29(M)47313GOZZI FEDERICOINDIVIDUALE02:32:41 01:40:23 7.232 00:13:53 0 -
2813218-24(F)7406BUCCELLA CHIARAWHITEDONKEYS OCR TEAM02:32:47 01:40:29 7.234 00:13:53 0 -
2823318-24(F)8403BONA ERICADAS TEAM02:34:03 01:41:45 7.265 00:14:00 0 -
28325045-49(M)38402BENATTI MARCOINDIVIDUALE02:36:00 01:43:42 7.312 00:14:11 0 -
28425150-99(M)10350STEFANI MARCOINDIVIDUALE02:37:19 01:45:01 7.343 00:14:18 0 -
28525240-44(M)40385RISA ROBERTOUNIVERSO GLADIATORS02:37:27 01:45:09 7.346 00:14:19 0 PO
28625340-44(M)41366TOCCI FRANCOINDIVIDUALE02:37:43 01:45:25 7.352 00:14:20 0 -
2873445-49(F)2343POLETTI ANGELAINDIVIDUALE02:38:51 01:46:33 7.378 00:14:27 0 -
2883525-29(F)6289DE LUCA ANNA SANTAINDIVIDUALE02:38:52 01:46:34 7.378 00:14:27 0 R
2893625-29(F)7472CARAMANICA CHIARAINDIVIDUALE02:39:30 01:47:12 7.393 00:14:30 0 -
2903725-29(F)8400ADIGE VALERIAINDIVIDUALE02:39:47 01:47:29 7.399 00:14:32 0 -
2913835-39(F)6288DANTE RAFFAELLAINDIVIDUALE02:41:13 01:48:55 7.431 00:14:39 0 -
2923930-34(F)8258BELLOMI FRANCESCAINDIVIDUALE02:42:26 01:50:08 7.458 00:14:46 0 -
2934040-44(F)7470BRACONI DANIELARED LEMURS02:44:29 01:52:11 7.502 00:14:57 0 R
2944135-39(F)7297FACCHINI SILVIAWHITEDONKEYS OCR TEAM02:44:45 01:52:27 7.508 00:14:59 0 -
2954235-39(F)8310GIACOMELLO BARBARAWHITEDONKEYS OCR TEAM02:44:49 01:52:31 7.509 00:14:59 0 -
29625425-29(M)48308GERINI PAOLOINDIVIDUALE02:45:08 01:52:50 7.516 00:15:01 0 R
29725530-34(M)50455TORRES SANDOVAL LUIS MANUEL GERARDOTEAM SPARTAN ARENA02:45:13 01:52:55 7.517 00:15:01 0 -
2984340-44(F)8159IOSEPOV ALINA MIHAELAINDIVIDUALE02:47:05 01:54:47 7.556 00:15:11 0 -
2994425-29(F)9283CHERUBINI GIULIAINDIVIDUALE02:47:32 01:55:14 7.566 00:15:14 0 -
3004530-34(F)9341PIERALLI GIULIAANIS MUDDERS02:47:52 01:55:34 7.572 00:15:16 0 -
30125630-34(M)51342PIZZO SEBASTIANO ANTONIOSIRACUSA SPARTAN CREW02:48:13 01:55:55 7.580 00:15:18 0 -
30225730-34(M)52255AZZERBONI ANDREAINDIVIDUALE02:48:51 01:56:33 7.592 00:15:21 0 R
3034625-29(F)10377FORTE IANIRAINDIVIDUALE02:49:03 01:56:45 7.596 00:15:22 0 -
3044725-29(F)11469BARTOLI VERONICANINJA CAVE02:52:18 02:00:00 7.661 00:15:40 0 -
3054835-39(F)9111BELLOMI LAURAINDIVIDUALE02:54:31 02:02:13 7.703 00:15:52 0 -
3064935-39(F)10474DAGIANTI VALERIAANIS MUDDERS02:55:43 02:03:25 7.725 00:15:59 0 -
30725830-34(M)53376MARINELLI NICOLAINDIVIDUALE02:56:17 02:03:59 7.736 00:16:02 0 -
3085018-24(F)9324MAINARDI ALICENINJA CAVE02:59:34 02:07:16 7.796 00:16:20 0 -
3095140-44(F)9471CAMPETTI KATIANINJA CAVE03:00:09 02:07:51 7.806 00:16:23 0 -
31025935-39(M)53466BENEDETTI FRANCESCOKNIGHT RACE03:07:17 02:14:59 7.928 00:17:02 0 -
Righe per pagina::     TUTTE    |   30   |   50   |   100   Pagina:   | 1 | | 2 | | 3 | | 4 | | 5 | | 6 | | 7 |